Tracking 34142 objects as of 18-May-2026
HD Live streaming from Space Station
objects crossing your sky now

QIANFAN-126

Track QIANFAN-126 now!
10-day predictions
QIANFAN-126 is classified as:


NORAD ID: 68653
Int'l Code: 2026-075T
Perigee: 935.2 km
Apogee: 952.9 km
Inclination: 89.0 °
Period: 103.8 minutes
Semi major axis: 7315 km
RCS: Unknown
Launch date: April 7, 2026
Source: People's Republic of China (PRC)
Launch site: Wenchang Satellite Launch Center (WSC)
Your satellite tracking list
Your tracking list is empty




NASA's NSSDC Master Catalog

Two Line Element Set (TLE):
1 68653U 26075T   26136.86051465  .00000041  00000-0  23541-4 0  9995
2 68653  88.9873 324.2317 0012099  98.8684 261.3859 13.87636900  5562
Source of the keplerian elements: AFSPC